GW7024 Weather Reports


time (UTC)temp
C
wind
direction
speed
KPH
gust
KPH
rain 1hr
cm
rain 24hr
cm
rain mn
cm
humidity
%
barometer
mb
20260906162140 24 267 6.4 9.7 0.00 0.00 0.00 76 1020.2
20260906161635 25 276 6.4 6.4 0.00 0.00 0.00 75 1020.0
20260906161134 24 221 1.6 3.2 0.00 0.00 0.00 78 1020.0
20260906160633 23 257 6.4 6.4 0.00 0.00 0.00 77 1020.1
20260906160133 23 291 8.0 9.7 0.00 0.00 0.00 78 1020.0
20260906155630 23 255 4.8 4.8 0.00 0.00 0.00 79 1020.1
20260906155126 23 278 4.8 6.4 0.00 0.00 0.00 78 1020.1
20260906154621 23 263 4.8 4.8 0.00 0.00 0.00 79 1020.2
20260906154120 23 250 6.4 6.4 0.00 0.00 0.00 80 1020.3
20260906153619 22 262 6.4 6.4 0.00 0.00 0.00 82 1020.2
20260906153114 22 271 8.0 11.3 0.00 0.00 0.00 81 1020.3
20260906152609 23 233 6.4 6.4 0.00 0.00 0.00 81 1020.3
20260906152103 22 267 6.4 6.4 0.00 0.00 0.00 81 1020.1
20260906151558 22 260 3.2 4.8 0.00 0.00 0.00 82 1020.1
20260906151054 22 251 6.4 6.4 0.00 0.00 0.00 82 1020.2
20260906150549 22 291 9.7 12.9 0.00 0.00 0.00 82 1020.1
20260906150044 22 251 4.8 4.8 0.00 0.00 0.00 85 1020.0
20260906145543 22 259 4.8 6.4 0.00 0.00 0.00 86 1020.3
20260906145038 21 277 4.8 6.4 0.00 0.00 0.00 86 1020.1
20260906144532 21 262 3.2 4.8 0.00 0.00 0.00 87 1020.1
20260906144027 21 279 8.0 9.7 0.00 0.00 0.00 87 1020.2
20260906143522 21 266 4.8 6.4 0.00 0.00 0.00 88 1020.2
20260906143020 21 241 3.2 4.8 0.00 0.00 0.00 88 1020.2
20260906142519 21 255 3.2 4.8 0.00 0.00 0.00 88 1020.2
20260906142015 21 265 6.4 9.7 0.00 0.00 0.00 88 1020.3
20260906141513 21 266 8.0 9.7 0.00 0.00 0.00 88 1020.2
20260906141008 21 266 3.2 4.8 0.00 0.00 0.00 89 1020.2
20260906140503 21 258 8.0 11.3 0.00 0.00 0.00 89 1020.1
20260906140001 21 241 3.2 4.8 0.00 0.00 0.00 89 1020.0
20260906135459 21 263 6.4 6.4 0.00 0.00 0.00 90 1020.1
20260906134954 20 256 4.8 4.8 0.00 0.00 0.00 90 1020.0
20260906134451 20 269 4.8 6.4 0.00 0.00 0.00 91 1019.8
20260906133951 20 276 6.4 6.4 0.00 0.00 0.00 91 1019.8
20260906133446 20 279 4.8 4.8 0.00 0.00 0.00 92 1019.8
20260906132942 20 237 3.2 4.8 0.00 0.00 0.00 92 1020.0
20260906132437 20 236 3.2 3.2 0.00 0.00 0.00 92 1019.8
20260906131932 20 274 3.2 3.2 0.00 0.00 0.00 92 1020.0
20260906131428 20 230 3.2 4.8 0.00 0.00 0.00 93 1019.8
20260906130923 20 261 3.2 3.2 0.00 0.00 0.00 93 1019.8
20260906130422 20 251 4.8 6.4 0.00 0.00 0.00 94 1019.9
20260906125923 20 250 3.2 4.8 0.00 0.00 0.00 94 1019.9
20260906125420 20 246 1.6 3.2 0.00 0.00 0.00 95 1019.8
20260906124919 20 225 1.6 1.6 0.00 0.00 0.00 95 1019.8
20260906124415 19 233 3.2 3.2 0.00 0.00 0.00 95 1019.7
20260906123910 19 240 3.2 3.2 0.00 0.00 0.00 95 1019.8
20260906123410 19 252 1.6 3.2 0.00 0.00 0.00 96 1019.7
20260906122909 19 265 4.8 4.8 0.00 0.00 0.00 96 1019.5
20260906122404 19 245 3.2 3.2 0.00 0.00 0.00 96 1019.5
20260906121901 19 224 0.0 0.0 0.00 0.00 0.00 96 1019.4
20260906121357 19 238 1.6 1.6 0.00 0.00 0.00 96 1019.3
20260906120853 18 244 1.6 3.2 0.00 0.00 0.00 96 1019.3
20260906120348 18 237 1.6 1.6 0.00 0.00 0.00 97 1019.3
20260906115845 18 253 3.2 3.2 0.00 0.00 0.00 97 1019.3
20260906115340 18 224 0.0 0.0 0.00 0.00 0.00 96 1019.3
20260906114839 18 222 0.0 0.0 0.00 0.00 0.00 96 1019.2
20260906114334 18 222 0.0 0.0 0.00 0.00 0.00 96 1019.2
20260906113830 18 223 0.0 0.0 0.00 0.00 0.00 96 1019.3
20260906113329 18 218 0.0 0.0 0.00 0.00 0.00 96 1019.2
20260906112824 18 218 0.0 0.0 0.00 0.00 0.00 96 1019.3
20260906112320 18 218 0.0 0.0 0.00 0.00 0.00 96 1019.3
20260906111820 18 218 0.0 0.0 0.00 0.00 0.00 96 1019.2
20260906111320 18 218 0.0 0.0 0.00 0.00 0.00 96 1019.2
20260906110815 18 218 0.0 0.0 0.00 0.00 0.00 96 1019.0
20260906110311 18 211 0.0 0.0 0.00 0.00 0.00 96 1019.0
20260906105809 18 220 0.0 0.0 0.00 0.00 0.00 96 1018.8
20260906105306 18 222 0.0 0.0 0.00 0.00 0.00 96 1018.5
20260906104801 18 218 0.0 0.0 0.00 0.00 0.00 96 1018.7
20260906104259 18 217 0.0 0.0 0.00 0.00 0.00 96 1018.9
20260906103758 18 220 0.0 0.0 0.00 0.00 0.00 96 1018.6
20260906103257 19 221 0.0 0.0 0.00 0.00 0.00 96 1018.8
20260906102753 18 241 1.6 1.6 0.00 0.00 0.00 97 1018.7
20260906102252 18 218 0.0 0.0 0.00 0.00 0.00 96 1018.7
20260906101747 18 216 0.0 0.0 0.00 0.00 0.00 96 1018.7
20260906101242 18 216 0.0 0.0 0.00 0.00 0.00 96 1018.7
20260906100738 18 223 0.0 0.0 0.00 0.00 0.00 96 1018.6
20260906100237 18 214 0.0 0.0 0.00 0.00 0.00 95 1018.3
20260906095732 18 222 0.0 0.0 0.00 0.00 0.00 96 1018.3
20260906095228 18 222 0.0 0.0 0.00 0.00 0.00 95 1018.3
20260906094727 18 220 0.0 0.0 0.00 0.00 0.00 96 1018.2
20260906094222 18 222 0.0 0.0 0.00 0.00 0.00 95 1018.1
20260906093719 18 217 0.0 0.0 0.00 0.00 0.00 95 1018.1
20260906093214 18 215 0.0 0.0 0.00 0.00 0.00 95 1018.1
20260906092709 18 220 0.0 0.0 0.00 0.00 0.00 95 1017.9
20260906092208 18 218 0.0 0.0 0.00 0.00 0.00 95 1018.0
20260906091704 18 219 0.0 0.0 0.00 0.00 0.00 95 1018.0
20260906091201 18 210 0.0 0.0 0.00 0.00 0.00 94 1018.1
20260906090656 18 218 0.0 0.0 0.00 0.00 0.00 94 1018.0
20260906090156 19 218 0.0 0.0 0.00 0.00 0.00 94 1018.1
20260906085655 19 218 0.0 0.0 0.00 0.00 0.00 95 1017.9
20260906085154 18 219 0.0 0.0 0.00 0.00 0.00 94 1017.8
20260906084649 18 219 0.0 0.0 0.00 0.00 0.00 94 1018.0
20260906084148 19 217 0.0 0.0 0.00 0.00 0.00 94 1017.8
20260906083643 19 220 0.0 0.0 0.00 0.00 0.00 94 1018.0
20260906083139 20 216 0.0 0.0 0.00 0.00 0.00 94 1018.1
20260906082634 20 223 0.0 0.0 0.00 0.00 0.00 95 1017.8
20260906082130 20 233 1.6 1.6 0.00 0.00 0.00 96 1018.1
20260906081626 20 226 0.0 1.6 0.00 0.00 0.00 96 1018.0
20260906081120 20 220 0.0 0.0 0.00 0.00 0.00 95 1018.1
20260906080617 20 234 1.6 1.6 0.00 0.00 0.00 96 1018.0
20260906080113 18 249 1.6 3.2 0.00 0.00 0.00 96 1018.0
20260906075612 18 217 0.0 0.0 0.00 0.00 0.00 96 1018.1
20260906075107 18 216 0.0 0.0 0.00 0.00 0.00 95 1018.1
20260906074603 18 216 0.0 0.0 0.00 0.00 0.00 95 1018.0
20260906074101 18 216 0.0 0.0 0.00 0.00 0.00 95 1018.1
20260906073556 18 215 0.0 0.0 0.00 0.00 0.00 95 1018.2
20260906073053 18 219 0.0 0.0 0.00 0.00 0.00 95 1018.0
20260906072552 18 219 0.0 0.0 0.00 0.00 0.00 95 1018.2
20260906072049 19 216 0.0 0.0 0.00 0.00 0.00 95 1018.1
20260906071545 19 219 0.0 0.0 0.00 0.00 0.00 95 1018.2
20260906071039 19 217 0.0 0.0 0.00 0.00 0.00 95 1018.2
20260906070536 19 217 0.0 0.0 0.00 0.00 0.00 95 1018.2
20260906070031 19 217 0.0 0.0 0.00 0.00 0.00 95 1018.2
20260906065531 19 217 0.0 0.0 0.00 0.00 0.00 95 1018.2
20260906065027 19 217 0.0 0.0 0.00 0.00 0.00 95 1018.4
20260906064523 19 216 0.0 0.0 0.00 0.00 0.00 95 1018.4
20260906064023 19 216 0.0 0.0 0.00 0.00 0.00 94 1018.2
20260906063518 19 216 0.0 0.0 0.00 0.00 0.00 94 1018.4
20260906063014 19 216 0.0 0.0 0.00 0.00 0.00 94 1018.3
20260906062509 19 216 0.0 0.0 0.00 0.00 0.00 94 1018.5
20260906062003 20 215 0.0 0.0 0.00 0.00 0.00 94 1018.6
20260906061459 20 217 0.0 0.0 0.00 0.00 0.00 94 1018.5
20260906060953 20 217 0.0 0.0 0.00 0.00 0.00 94 1018.5
20260906060450 20 217 0.0 0.0 0.00 0.00 0.00 94 1018.6
20260906055947 20 217 0.0 0.0 0.00 0.00 0.00 94 1018.4
20260906055442 20 217 0.0 0.0 0.00 0.00 0.00 94 1018.4
20260906054937 20 217 0.0 0.0 0.00 0.00 0.00 94 1018.3
20260906054432 20 217 0.0 0.0 0.00 0.00 0.00 94 1018.3
20260906053928 20 217 0.0 0.0 0.00 0.00 0.00 93 1018.3
20260906053424 20 217 0.0 0.0 0.00 0.00 0.00 93 1018.5
20260906052920 20 216 0.0 0.0 0.00 0.00 0.00 93 1018.4
20260906052416 20 218 0.0 0.0 0.00 0.00 0.00 93 1018.4
20260906051912 20 218 0.0 0.0 0.00 0.00 0.00 93 1018.4
20260906051412 20 219 0.0 0.0 0.00 0.00 0.00 93 1018.5
20260906050908 20 219 0.0 0.0 0.00 0.00 0.00 93 1018.5
20260906050408 20 215 0.0 0.0 0.00 0.00 0.00 92 1018.4
20260906045907 20 217 0.0 0.0 0.00 0.00 0.00 93 1018.3
20260906045406 20 217 0.0 0.0 0.00 0.00 0.00 93 1018.4
20260906044902 20 217 0.0 0.0 0.00 0.00 0.00 92 1018.4
20260906044403 20 217 0.0 0.0 0.00 0.00 0.00 92 1018.4
20260906043858 20 217 0.0 0.0 0.00 0.00 0.00 92 1018.3
20260906043355 20 217 0.0 0.0 0.00 0.00 0.00 92 1018.4
20260906042855 20 217 0.0 0.0 0.00 0.00 0.00 92 1018.4
20260906042353 20 217 0.0 0.0 0.00 0.00 0.00 92 1018.6
20260906041849 20 215 0.0 0.0 0.00 0.00 0.00 92 1018.5
20260906041345 21 217 0.0 0.0 0.00 0.00 0.00 92 1018.5
20260906040845 21 217 0.0 0.0 0.00 0.00 0.00 91 1018.4
20260906040340 21 218 0.0 0.0 0.00 0.00 0.00 91 1018.5
20260906035835 21 218 0.0 0.0 0.00 0.00 0.00 91 1018.5
20260906035331 21 216 0.0 0.0 0.00 0.00 0.00 91 1018.5
20260906034827 21 215 0.0 0.0 0.00 0.00 0.00 90 1018.4
20260906034327 21 215 0.0 0.0 0.00 0.00 0.00 90 1018.4
20260906033823 21 215 0.0 0.0 0.00 0.00 0.00 90 1018.4
20260906033321 21 213 0.0 0.0 0.00 0.00 0.00 90 1018.5
20260906032818 21 218 0.0 0.0 0.00 0.00 0.00 90 1018.4
20260906032314 21 218 0.0 0.0 0.00 0.00 0.00 90 1018.6
20260906031809 21 217 0.0 0.0 0.00 0.00 0.00 90 1018.8
20260906031304 21 215 0.0 0.0 0.00 0.00 0.00 89 1018.9
20260906030804 21 225 0.0 0.0 0.00 0.00 0.00 90 1018.6
20260906030259 21 215 0.0 0.0 0.00 0.00 0.00 89 1018.7
20260906025759 21 212 0.0 0.0 0.00 0.00 0.00 89 1018.7
20260906025253 21 212 0.0 0.0 0.00 0.00 0.00 88 1018.5
20260906024752 21 218 0.0 0.0 0.00 0.00 0.00 88 1018.5
20260906024251 21 218 0.0 0.0 0.00 0.00 0.00 88 1018.3
20260906023747 21 218 0.0 0.0 0.00 0.00 0.00 88 1018.4
20260906023242 21 216 0.0 0.0 0.00 0.00 0.00 87 1018.4
20260906022738 21 215 0.0 0.0 0.00 0.00 0.00 87 1018.1
20260906022233 22 216 0.0 0.0 0.00 0.00 0.00 86 1018.0
20260906021729 22 211 0.0 0.0 0.00 0.00 0.00 85 1017.7
20260906021228 22 220 0.0 0.0 0.00 0.00 0.00 86 1017.5
20260906020723 22 219 0.0 0.0 0.00 0.00 0.00 85 1017.4
20260906020217 22 225 0.0 0.0 0.00 0.00 0.00 84 1017.2
20260906015712 23 218 0.0 0.0 0.00 0.00 0.00 83 1017.2
20260906015210 23 213 0.0 0.0 0.00 0.00 0.00 80 1016.9
20260906014710 23 221 0.0 0.0 0.00 0.00 0.00 79 1017.0
20260906014207 24 223 0.0 0.0 0.00 0.00 0.00 78 1016.7
20260906013702 24 220 0.0 0.0 0.00 0.00 0.00 77 1016.8
20260906013157 25 221 0.0 0.0 0.00 0.00 0.00 76 1016.9
20260906012657 25 219 0.0 0.0 0.00 0.00 0.00 74 1016.7
20260906012152 25 225 0.0 0.0 0.00 0.00 0.00 73 1016.4
20260906011648 25 250 3.2 3.2 0.00 0.00 0.00 73 1016.3
20260906011148 25 261 3.2 4.8 0.00 0.00 0.00 73 1016.1
20260906010643 25 270 4.8 4.8 0.00 0.00 0.00 72 1016.1
20260906010139 25 248 3.2 4.8 0.00 0.00 0.00 72 1016.0
20260906005639 26 254 3.2 4.8 0.00 0.00 0.00 71 1016.0
20260906005138 26 238 3.2 3.2 0.00 0.00 0.00 70 1016.0
20260906004637 26 243 3.2 4.8 0.00 0.00 0.00 70 1016.0
20260906004132 26 246 3.2 3.2 0.00 0.00 0.00 69 1016.0
20260906003627 26 260 3.2 3.2 0.00 0.00 0.00 68 1016.1
20260906003123 26 251 3.2 3.2 0.00 0.00 0.00 68 1015.9
20260906002618 26 282 6.4 6.4 0.00 0.00 0.00 68 1016.1
20260906002113 26 252 3.2 4.8 0.00 0.00 0.00 67 1016.0
20260906001609 26 249 6.4 6.4 0.00 0.00 0.00 67 1015.9
20260906001108 26 240 3.2 3.2 0.00 0.00 0.00 67 1015.8
20260906000605 26 245 3.2 3.2 0.00 0.00 0.00 66 1015.7
20260906000059 26 246 6.4 9.7 0.00 0.00 0.00 66 1015.9
20260905235558 27 242 4.8 4.8 0.00 0.00 0.00 66 1016.0
20260905235054 27 264 3.2 4.8 0.00 0.00 0.00 66 1015.8
20260905234549 27 241 6.4 9.7 0.00 0.00 0.00 66 1015.9
20260905234044 27 226 3.2 3.2 0.00 0.00 0.00 64 1015.6
20260905233544 27 250 8.0 11.3 0.00 0.00 0.00 63 1015.6
20260905233044 27 231 3.2 3.2 0.00 0.00 0.00 64 1015.5
20260905232539 28 242 6.4 6.4 0.00 0.00 0.00 64 1015.5
20260905232035 28 247 4.8 6.4 0.00 0.00 0.00 63 1015.5
20260905231530 28 238 1.6 3.2 0.00 0.00 0.00 63 1015.3
20260905231026 28 273 6.4 9.7 0.00 0.00 0.00 63 1015.5
20260905230525 28 264 4.8 4.8 0.00 0.00 0.00 62 1015.5
20260905230024 28 248 4.8 6.4 0.00 0.00 0.00 62 1015.7
20260905225519 28 247 4.8 4.8 0.00 0.00 0.00 63 1015.6
20260905225014 28 235 4.8 4.8 0.00 0.00 0.00 62 1015.4
20260905224509 29 256 6.4 6.4 0.00 0.00 0.00 61 1015.5
20260905224008 28 152 0.0 1.6 0.00 0.00 0.00 62 1015.5
20260905223506 29 276 8.0 11.3 0.00 0.00 0.00 60 1015.4
20260905223002 29 247 9.7 11.3 0.00 0.00 0.00 61 1015.3
20260905222501 29 251 3.2 3.2 0.00 0.00 0.00 60 1015.5
20260905221956 30 249 3.2 4.8 0.00 0.00 0.00 58 1015.4
20260905221453 29 237 0.0 0.0 0.00 0.00 0.00 61 1015.6
20260905220949 30 250 9.7 11.3 0.00 0.00 0.00 58 1015.5
20260905220445 29 230 3.2 4.8 0.00 0.00 0.00 60 1015.4
20260905215944 29 247 6.4 6.4 0.00 0.00 0.00 59 1015.4
20260905215440 29 247 1.6 1.6 0.00 0.00 0.00 59 1015.6
20260905214936 29 234 4.8 4.8 0.00 0.00 0.00 59 1015.5
20260905214432 30 241 8.0 11.3 0.00 0.00 0.00 58 1015.6
20260905213931 30 254 6.4 6.4 0.00 0.00 0.00 58 1015.8
20260905213428 30 245 0.0 1.6 0.00 0.00 0.00 57 1015.8
20260905212923 30 224 1.6 1.6 0.00 0.00 0.00 58 1015.9
20260905212418 30 237 1.6 1.6 0.00 0.00 0.00 59 1016.0
20260905211917 29 245 1.6 3.2 0.00 0.00 0.00 62 1016.1
20260905211413 28 236 1.6 1.6 0.00 0.00 0.00 63 1016.2
20260905210909 28 249 3.2 4.8 0.00 0.00 0.00 64 1016.6
20260905210408 28 239 3.2 3.2 0.00 0.00 0.00 63 1016.6
20260905205908 29 238 1.6 1.6 0.00 0.00 0.00 63 1016.7
20260905205403 29 225 0.0 0.0 0.00 0.00 0.00 64 1016.7
20260905204901 29 238 3.2 3.2 0.00 0.00 0.00 63 1016.7
20260905204358 29 241 1.6 1.6 0.00 0.00 0.00 62 1016.8
20260905203856 29 148 1.6 3.2 0.00 0.00 0.00 68 1016.8
20260905203352 29 224 1.6 1.6 0.00 0.00 0.00 66 1016.8
20260905202849 29 231 0.0 1.6 0.00 0.00 0.00 66 1016.9
20260905202349 29 301 1.6 1.6 0.00 0.00 0.00 66 1017.0
20260905201845 28 176 1.6 1.6 0.00 0.00 0.00 67 1017.0
20260905201340 29 264 3.2 3.2 0.00 0.00 0.00 65 1017.0
20260905200839 29 240 1.6 1.6 0.00 0.00 0.00 65 1017.1
20260905200336 29 177 3.2 3.2 0.00 0.00 0.00 67 1017.3
20260905195833 28 223 0.0 0.0 0.00 0.00 0.00 66 1017.4
20260905195329 28 204 0.0 1.6 0.00 0.00 0.00 65 1017.4
20260905194825 28 119 0.0 1.6 0.00 0.00 0.00 66 1017.6
20260905194324 28 238 3.2 3.2 0.00 0.00 0.00 66 1017.5
20260905193823 28 231 1.6 1.6 0.00 0.00 0.00 66 1017.4
20260905193318 28 241 3.2 4.8 0.00 0.00 0.00 66 1017.5
20260905192814 28 250 4.8 4.8 0.00 0.00 0.00 67 1017.5
20260905192310 27 59 3.2 4.8 0.00 0.00 0.00 70 1017.4
20260905191809 27 171 3.2 4.8 0.00 0.00 0.00 69 1017.6
20260905191308 28 1 3.2 4.8 0.00 0.00 0.00 70 1017.4
20260905190807 27 220 0.0 0.0 0.00 0.00 0.00 70 1017.4
20260905190307 27 168 0.0 1.6 0.00 0.00 0.00 70 1017.4
20260905185805 27 247 3.2 4.8 0.00 0.00 0.00 70 1017.5
20260905185300 27 214 1.6 1.6 0.00 0.00 0.00 72 1017.4
20260905184754 27 245 3.2 4.8 0.00 0.00 0.00 71 1017.6
20260905184253 26 242 1.6 1.6 0.00 0.00 0.00 71 1017.5
20260905183753 26 241 1.6 3.2 0.00 0.00 0.00 73 1017.5
20260905183248 26 259 3.2 3.2 0.00 0.00 0.00 71 1017.5
20260905182748 26 224 0.0 0.0 0.00 0.00 0.00 72 1017.5
20260905182247 26 248 0.0 1.6 0.00 0.00 0.00 72 1017.6
20260905181743 26 245 3.2 4.8 0.00 0.00 0.00 74 1017.8
20260905181242 26 230 1.6 1.6 0.00 0.00 0.00 74 1017.8
20260905180737 26 190 3.2 3.2 0.00 0.00 0.00 73 1017.8
20260905180232 26 233 0.0 1.6 0.00 0.00 0.00 76 1017.8
20260905175733 26 221 3.2 3.2 0.00 0.00 0.00 74 1017.9
20260905175233 26 231 1.6 1.6 0.00 0.00 0.00 74 1018.0
20260905174728 25 224 3.2 3.2 0.00 0.00 0.00 75 1018.0
20260905174224 25 248 1.6 1.6 0.00 0.00 0.00 75 1018.1
20260905173720 25 246 3.2 3.2 0.00 0.00 0.00 76 1018.2
20260905173216 25 243 4.8 4.8 0.00 0.00 0.00 76 1018.1
20260905172715 25 232 1.6 1.6 0.00 0.00 0.00 77 1018.3
20260905172214 26 212 0.0 0.0 0.00 0.00 0.00 75 1018.4
20260905171710 26 243 3.2 3.2 0.00 0.00 0.00 75 1018.3
20260905171206 26 194 0.0 1.6 0.00 0.00 0.00 76 1018.4
20260905170704 25 224 0.0 0.0 0.00 0.00 0.00 79 1018.4
20260905170203 25 210 0.0 1.6 0.00 0.00 0.00 79 1018.5
20260905165703 25 252 3.2 3.2 0.00 0.00 0.00 79 1018.6
20260905165159 25 220 0.0 0.0 0.00 0.00 0.00 78 1018.6
20260905164653 24 216 0.0 0.0 0.00 0.00 0.00 81 1018.6
20260905164153 24 216 0.0 1.6 0.00 0.00 0.00 81 1018.6
20260905163649 24 220 0.0 1.6 0.00 0.00 0.00 81 1018.6
20260905163145 23 230 0.0 1.6 0.00 0.00 0.00 81 1018.7
20260905162642 23 233 0.0 1.6 0.00 0.00 0.00 83 1018.6